Simultaneous Nadir Overpasses (SNOs) Predictions

Prediction of SNOs between METOP-B and TERRA Satellite Orbit:

Table of predicted SNOs for the next 14.0 days since TLE Epoch: 4/27/2024
Index Date (METOP-B) Time (METOP-B) Lat,Lon (METOP-B) SZA (METOP-B ) Date (TERRA) Time (TERRA) Lat,Lon (TERRA) SZA (TERRA ) Distance(km) Time Diff (sec)
1 04/27/2024 07:15:23 80.23, 93.31 66.96 04/27/2024 07:16:01 80.22, 93.25 66.96 1.31 38
2 04/27/2024 08:05:59 -80.36, -97.87 112.83 04/27/2024 08:05:18 -80.36, -97.90 112.85 0.63 41
3 04/29/2024 22:36:16 -80.28, 43.60 113.78 04/29/2024 22:36:17 -80.28, 43.61 113.78 0.26 1
4 05/02/2024 13:06:32 -80.18,-175.05 114.72 05/02/2024 13:07:14 -80.19,-174.96 114.70 1.76 42
5 05/02/2024 13:57:07 80.33, -6.00 65.54 05/02/2024 13:56:31 80.33, -6.02 65.52 0.41 36
6 05/05/2024 04:27:23 80.25, 135.49 64.65 05/05/2024 04:27:27 80.26, 135.55 64.66 1.26 4
7 05/05/2024 05:17:35 -80.93, -47.50 114.00 05/05/2024 05:16:21 -81.09, -47.89 113.93 18.86 74
8 05/07/2024 18:57:37 80.21, -82.53 63.86 05/07/2024 18:58:21 80.20, -82.68 63.85 3.03 44
9 05/07/2024 19:48:14 -80.32, 86.06 115.96 05/07/2024 19:47:39 -80.32, 86.01 115.98 1.01 35
10 05/10/2024 10:18:30 -80.22,-132.69 116.83 05/10/2024 10:18:33 -80.22,-132.58 116.81 2.26 3



Historial Predications of SNOs between METOP-B and TERRA
